Location: Palo Alto
(37.4420°N, 122.1420°W)
Time: 02:26:31
(UTC-07:00)

ISS - All Passes

Search period start: 25 May 2018 00:00
Search period end: 04 June 2018 00:00
Orbit: 402 x 407 km, 51.6° (Epoch: 25 May)

Date Brightness Start Highest point End Pass type
(mag) Time Alt. Az. Time Alt. Az. Time Alt. Az.
25 May - 02:25:11 10° NNW 02:28:06 29° NNE 02:31:01 10° E visible
25 May - 04:01:45 10° WNW 04:04:31 25° SW 04:07:15 10° S night (unlit)
25 May - 19:03:56 10° S 19:06:38 24° SE 19:09:19 10° ENE daylight
25 May - 20:40:03 10° W 20:43:00 31° NNW 20:45:58 10° NNE daylight
26 May - 01:33:21 10° NNW 01:35:44 19° NNE 01:38:07 10° ENE visible
26 May - 03:09:14 10° WNW 03:12:26 54° SW 03:15:37 10° SE night (unlit)
26 May - 18:13:18 10° SSE 18:14:37 12° SE 18:15:56 10° ESE daylight
26 May - 19:47:29 10° WSW 19:50:43 58° NW 19:53:57 10° NE daylight
26 May - 21:26:25 10° NW 21:27:46 12° NNW 21:29:07 10° N visible
27 May - 00:41:40 10° N 00:43:16 13° NNE 00:44:53 10° NE visible
27 May - 02:16:59 10° NW 02:20:15 70° NE 02:23:29 10° SE night (unlit)
27 May - 18:55:16 10° SW 18:58:30 66° SE 19:01:45 10° NE daylight
27 May - 20:33:02 10° WNW 20:35:16 17° NNW 20:37:31 10° NNE daylight
28 May - 01:24:55 10° NW 01:27:58 35° NE 01:31:00 10° ESE visible
28 May - 03:01:48 10° W 03:04:17 20° SW 03:06:43 10° S night (unlit)
28 May - 18:03:26 10° SSW 18:06:22 30° SE 18:09:18 10° ENE daylight
28 May - 19:40:01 10° W 19:42:50 26° NNW 19:45:40 10° NNE daylight
29 May - 00:32:59 10° NNW 00:35:36 22° NNE 00:38:12 10° E visible
29 May - 02:09:05 10° WNW 02:12:11 41° SW 02:15:15 10° SSE night (unlit)
29 May - 17:12:17 10° SSE 17:14:18 15° SE 17:16:18 10° E daylight
29 May - 18:47:20 10° WSW 18:50:29 45° NW 18:53:39 10° NE daylight
29 May - 20:26:46 10° NNW 20:27:38 11° NNW 20:28:30 10° N daylight
29 May - 23:41:11 10° NNW 23:43:07 15° NNE 23:45:03 10° ENE visible
30 May - 01:16:43 10° NW 01:20:00 89° SW 01:23:15 10° SE visible
30 May - 17:54:56 10° SW 17:58:12 87° SE 18:01:29 10° NE daylight
30 May - 19:33:06 10° WNW 19:35:04 15° NNW 19:37:02 10° NNE daylight
30 May - 22:49:46 10° N 22:50:33 11° NNE 22:51:20 10° NNE visible
31 May - 00:24:34 10° NW 00:27:43 44° NE 00:30:51 10° ESE visible
31 May - 02:01:51 10° W 02:03:54 16° SW 02:05:57 10° SSW night (unlit)
31 May - 17:02:55 10° SSW 17:06:00 40° SE 17:09:05 10° ENE daylight
31 May - 18:39:56 10° W 18:42:35 22° NNW 18:45:13 10° NNE daylight
31 May - 23:32:31 10° NNW 23:35:20 25° NNE 23:38:06 10° E visible
01 Jun - 01:08:52 10° WNW 01:11:48 31° SW 01:14:43 10° SSE visible
01 Jun - 16:11:25 10° S 16:13:51 20° SE 16:16:18 10° E daylight
01 Jun - 17:47:05 10° WSW 17:50:09 36° NW 17:53:14 10° NE daylight
01 Jun - 22:40:38 10° NNW 22:42:50 17° NNE 22:45:02 10° ENE visible
02 Jun - 00:16:22 10° NW 00:19:37 68° SW 00:22:50 10° SE visible
02 Jun - 16:54:33 10° SW 16:57:48 72° NW 17:01:04 10° NE daylight
02 Jun - 18:33:06 10° NW 18:34:46 13° NNW 18:36:26 10° N daylight
02 Jun - 21:48:58 10° N 21:50:15 12° NNE 21:51:33 10° NE visible
02 Jun - 23:24:06 10° NW 23:27:19 56° NE 23:30:31 10° ESE visible
03 Jun - 01:02:01 10° WSW 01:03:25 12° SW 01:04:49 10° SSW night (unlit)
03 Jun - 16:02:20 10° SSW 16:05:31 52° SE 16:08:43 10° ENE daylight
03 Jun - 17:39:46 10° WNW 17:42:12 19° NNW 17:44:39 10° NNE daylight
03 Jun - 22:31:58 10° NNW 22:34:55 30° NNE 22:37:51 10° E visible
